www.pogodaiklimat.ru

Погода и климат >> Архив погоды >> Россия >> Челябинская область >> Бреды


АРХИВ ПОГОДЫ в Бредах

Время (UTC), дата Ветер
(напр.,м/с)
 
Видим.   Явления Облачность Т
(С)
Тd
(С)
f
(%)
Тe
(С)
Тes
(С)
Комфортность P
(гПа)
Po
(гПа)
Тmin
(С)
Tmax
(С)
R
(мм)
R24
(мм)
S
(см)
12 13.05 ЮВ 3 50 км {гроза} 8/6 1000 м
[Sc Ac cast Ci sp]
+29.6 +6.3 23 +28 +30 жарко 1018.3 983.5
15 13.05 С 3 50 км в посл. час ливневой дождь 10/8 600 м
[Cb cap Ac lent Ci sp]
+25.6 +7.1 31 +26 +26 жарко 1019.0 983.7 +30.6
18 13.05 ЮВ 2 10 км {ливн. осадки} 3/0
[Ci sp]
+19.8 +8.2 47 +21 +21 комфорт 1019.4 983.5
21 13.05 З 1 10 км 3/0
[Ci sp]
+16.8 +8.7 59 +18 +18 1018.5 982.3
00 14.05 СЗ 3 10 км 6/4 1000 м
[Sc Ci sp]
+15.9 +8.1 60 +16 +16 1017.6 981.2
03 14.05 СЗ 4 50 км 4/0
[Ac lent Ci sp]
+21.4 +8.1 42 +22 +24 комфорт 1017.6 980.6 +14.2
06 14.05 З 3 50 км 6/4 1000 м
[Sc Ac lent]
+29.0 +6.3 24 +28 +33 жарко 1014.1 979.4
09 14.05 С 5-10
{10}
500 м гроза без осадков 8/6
[Cb cap Ac cast]
+31.8 +5.2 19 +30 +32 жарко 1012.1 977.7
12 14.05 СВ 5-10
{11}
50 км в посл. час гроза {ливн. осадки} 8/6 600 м
[Cb cap Ac cast]
+25.9 +6.3 29 +26 +26 жарко 1013.0 978.0
15 14.05 СВ 2
{14}
10 км слаб. ливневой дождь 10/10 600 м
[Cb cap]
+15.6 +12.2 80 +16 +16 1019.0 982.6 +31.9 1
18 14.05 В 5
{11}
10 км {ливн. осадки} 10/10 600 м
[Cb cap]
+11.5 +8.8 83 +9 +9 1019.3 982.4
21 14.05 В 4
{11}
10 км 10/10 600 м
[Cb cap]
+9.0 +5.1 77 +6 +6 1020.7 983.4
00 15.05 СВ 3
{10}
10 км 10/10 1000 м
[Sc]
+7.3 +2.7 73 +5 +5 1022.2 984.5
03 15.05 В 5-11
{11}
50 км 10/10 1000 м
[Sc]
+7.9 +1.8 65 +4 +4 1023.7 986.0 +7.2 2
06 15.05 В 6-11
{13}
50 км 10/0
[Ac und]
+9.3 -0.1 52 +6 +8 1024.3 986.8
09 15.05 В 5
{12}
50 км 10/0
[Ac und]
+9.2 -3.2 42 +6 +9 1025.3 987.8
12 15.05 В 3 50 км 10/6 600 м
[Cb cap Ac und]
+10.6 -2.1 41 +9 +10 1024.9 987.6
15 15.05 СВ 3 50 км 10/10 1000 м
[Sc]
+8.5 -0.8 52 +6 +6 1024.4 986.8 +10.9
18 15.05 СВ 2 10 км 10/10 1000 м
[Sc]
+9.3 -3.5 40 +8 +8 1024.5 986.9
21 15.05 СВ 2 10 км 10/10 1000 м
[Sc]
+8.1 +0.9 60 +7 +7 1024.5 986.8
00 16.05 В 2 20 км 10/10 1000 м
[Sc]
+8.0 -2.8 46 +7 +7 1024.2 986.5
03 16.05 ЮВ 2 50 км 10/10 1000 м
[Sc]
+9.5 -3.1 41 +8 +8 1024.8 987.3 +7.8
06 16.05 ЮВ 3 50 км 8/0
[Ac trans]
+14.4 -6.3 23 +14 +20 1023.8 986.9
09 16.05 ЮВ 4 50 км 6/0
[Ac lent Ci sp]
+17.0 -8.7 16 +17 +23 1021.9 985.4
12 16.05 Ю 4
{10}
50 км 4/0
[Ci sp]
+19.7 -9.1 13 +19 +24 1019.7 983.6
15 16.05 Ю 2 50 км 8/0
[Ac cast Cc]
+17.2 -6.8 19 +18 +18 1019.0 982.7 +20.1
18 16.05 Ю 2 10 км 10/0
[Ac lent Cc]
+14.9 -4.0 27 +15 +15 1018.0 981.4
21 16.05 Ю 3 10 км 10/0
[Ac und]
+12.9 -4.8 29 +12 +12 1016.3 979.5
00 17.05 З 3 20 км 10/10 1000 м
[Sc]
+13.1 -4.6 29 +12 +12 1015.8 979.1
03 17.05 Ю 3 50 км в посл. час ливневой дождь 10/4 600 м
[Cb cap Ac trans]
+10.8 +4.5 65 +9 +10 1012.1 975.2 +8.0 1
06 17.05 ЮЗ 5
{10}
50 км {ливн. осадки} 10/4 1000 м
[Sc Ac lent Cc]
+14.7 +3.3 46 +13 +15 1009.8 973.5
09 17.05 З 4
{10}
50 км слаб. ливневой дождь 10/10 600 м
[Cb cap]
+15.5 +7.8 60 +15 +15 1007.9 971.9
12 17.05 З 2 50 км {ливн. осадки} 10/10 600 м
[Cb cap]
+16.6 +11.9 74 +17 +17 1005.9 970.0
15 17.05 СЗ 2 50 км 8/6 600 м
[Cb cap Ac cast]
+15.7 +11.1 74 +16 +16 1006.4 970.4 +18.6 1
18 17.05 С 5
{10}
10 км 8/6 600 м
[Cb cap Ac cast]
+10.2 +4.9 70 +7 +7 1008.7 971.9
21 17.05 С 4
{12}
10 км 10/6 1000 м
[Sc Ac cast Cc]
+6.2 -0.3 63 +3 +3 1010.4 973.0
00 18.05 С 2 10 км 6/4 1000 м
[Sc Ci sp]
+3.2 -2.2 68 +1 +1 1011.2 973.4
03 18.05 С 4 50 км 4/0
[Ac lent Ci sp]
+6.8 -2.8 50 +4 +6 1010.6 973.3 +2.5 1
06 18.05 СЗ 3 50 км 3/0
[Ci sp]
+11.7 -2.7 36 +11 +21 опасность
простуды
1009.3 972.7
09 18.05 З 4
{11}
50 км 3/0
[Ci sp]
+13.9 -3.3 30 +13 +23 1007.5 971.2
12 18.05 З 4 50 км 6/4
[Cu hum Ci fib]
+15.9 -4.3 25 +15 +18 1005.6 969.6
15 18.05 З 5-10
{11}
50 км 8/6 1000 м
[Cu Sc Ac lent Cc]
+13.4 -2.4 33 +12 +12 1005.5 969.2 +16.3
18 18.05 З 2
{10}
10 км 10/10 1000 м
[Sc]
+8.8 +2.8 66 +7 +7 1005.9 969.0
21 18.05 З 3 10 км слаб. ливневой дождь 10/10 600 м
[Cb cap]
+7.4 +4.1 80 +5 +5 1004.9 967.9
00 19.05 З 2 50 км {ливн. осадки} 8/6 1000 м
[Sc Ac lent]
+4.2 +0.3 76 +2 +2 1005.3 967.9
03 19.05 З 3 50 км 10/10 1000 м
[Sc]
+5.2 +1.0 74 +2 +2 1005.5 968.2 +3.7
06 19.05 СЗ 6-11
{11}
50 км 8/6 600 м
[Cb cap Ac lent]
+8.8 +0.3 55 +5 +7 1005.9 969.0
09 19.05 З 6-11
{15}
50 км 8/8 1000 м
[Cu med, cong]
+12.1 -5.7 28 +10 +11 1005.8 969.3
12 19.05 СЗ 6-13
{13}
50 км 8/6 1000 м
[Cu Sc Ac As Ci fib]
+13.1 -6.2 26 +11 +12 1006.1 969.8
15 19.05 СЗ 4
{13}
50 км 10/8 600 м
[Cb cap Ac As Ci sp]
+10.3 -3.3 38 +8 +8 1007.3 970.5 +13.9
18 19.05 З 2 10 км в посл. час ливневой дождь 10/8 600 м
[Cb cap Ac und]
+5.9 +1.0 71 +4 +4 1008.5 971.1
21 19.05 З 1 10 км 3/0
[Ac lent]
+2.6 -0.1 82 +1 +1 1008.3 970.5
00 20.05 СЗ 3 20 км 10/0
[Ac As Cc]
+2.3 +0.4 87 -2 -2 1008.1 970.3
03 20.05 С 3 50 км 3/0
[Ac lent]
+6.3 -0.5 62 +4 +6 1008.3 971.0 +1.4 0.4
06 20.05 СЗ 3 50 км 8/8 1000 м
[Sc]
+9.1 -3.1 42 +7 +9 1008.8 971.8
09 20.05 СЗ 5-10
{10}
50 км пыльный позёмок 8/8 1000 м
[Sc]
+11.3 -5.0 32 +9 +11 1008.8 972.0

 

Местоположение метеостанции Бреды (Челябинская область, Россия): широта 52.43 долгота 60.35 высота над уровнем моря 310 м.

В архиве по умолчанию представлена погода в Бредах за последнюю неделю. Архивные данные за месяц целиком и за предыдущие месяцы, начиная с января 2011 года, Вы можете получить, выбрав интересующий диапазон дат из раскрывающегося списка и нажав кнопку "Ввод!".


*Определитесь, кто Вы:
робот инопланетянин человек

Внимание! Время в таблицах - всемирное. Для получения местного времени необходимо прибавить поправку, которая равна 5 ч.

Смотрите также архив погоды в соседних городах и на ближайших метеорологических станциях:

Погода в Айдырля (Оренбургская область, Россия) (62 км)
Погода в Аршалынском (Акмолинская область, Казахстан) (66 км)
Погода в Житикаре (Костанайская область, Казахстан) (67 км)
Погода в Карталы (Челябинская область, Россия) (72 км)
Погода в Кизильском (Челябинская область, Россия) (104 км)
Погода в Энергетике (Оренбургская область, Россия) (127 км)
Погода в Магнитогорске (Челябинская область, Россия) (133 км)
Погода в Зерносовхозе Озерном (Оренбургская область, Россия) (152 км)
Погода в Тоболе (Костанайская область, Казахстан) (155 км)
Погода в Михайловке (Костанайская область, Казахстан) (156 км)

Пояснения к столбцам:

Ветер - указаны скорость ветра в м/с - средняя за 10 мин, порывы в срок и между сроками (в фигурных скобках) и направление, откуда дует ветер: С - северный, СВ - северо-восточный, В - восточный, ЮВ - юго-восточный, Ю - южный, ЮЗ - юго-западный, З - западный, СЗ - северо-западный.
Видимость - горизонтальная дальность видимости в метрах или километрах. При видимости от 1 до 10 км при отсутствии осадков обычно наблюдается дымка, при ухудшении видимости до 1 км и менее - туман. В сухую погоду видимость может ухудшаться дымом, пылью или мглою.
Явления - указаны атмосферные явления, наблюдавшиеся в срок или в последний час перед сроком; фигурными скобками обозначены явления, наблюдавшиеся между сроками (за 1-3 часа до срока); квадратными скобками обозначены град или гололедные отложения с указанием их диаметра в мм.
Облачность - указаны через наклонную черту общая и нижняя облачность в баллах и высота нижней границы облаков в метрах; квадратными скобками обозначены формы облаков: Ci - перистые, Cs - перисто-слоистые, Cc - перисто-кучевые, Ac - высококучевые, As - высокослоистые, Sc - слоисто-кучевые, Ns - слоисто-дождевые, Cu - кучевые, Cb - кучево-дождевые. Подробнее классификацию облаков см. в Атласе облаков (PDF).
T - Температура воздуха - температура, измеренная на высоте 2 м над землей.
Td - Температура точки росы - температура, при понижении до которой содержащийся в воздухе водяной пар достигнет насыщения.
f - Относительная влажность воздуха - влажноcть воздуха, измеренная на высоте 2 м над землей.
Te - Эффективная температура - температура, которую ощущает одетый по сезону человек в тени. Характеристика душности погоды. При расчете учитывается влияние влажности воздуха и скорости ветра на теплоощущения человека.
Tes - Эффективная температура на солнце - температура, которую ощущает человек, с поправкой на солнечный нагрев. Характеристика знойности погоды. Зависит от высоты солнца над горизонтом, облачности и скорости ветра. Ночью, в пасмурную погоду, а также при ветре 12 м/с и более поправка равна нулю.
P - Атмосферное давление - приведенное к уровню моря атмосферное давление.
Po - Атмосферное давление - измеренное на уровне метеостанции атмосферное давление.
Tmin - Минимальная температура - минимум температуры воздуха на высоте 2 м над землей.
Tmax - Максимальная температура - максимум температуры воздуха на высоте 2 м над землей.
R - Количество осадков - Количество выпавших осадков за период времени, мм. При наведении курсора мыши на число - период времени, за который выпало указанное количество осадков.
R24 - Количество осадков - Количество выпавших осадков за 24 часа, мм.
S - Снежный покров - Высота снежного покрова, см. При наведении курсора мыши на число - состояние снежного покрова и степень покрытия местности в баллах.